DW3649 Weather Reports


Display with metric or nautical units.
time (UTC)temp
F
wind
direction
speed
MPH
gust
MPH
rain 1hr
in
rain 24hr
in
rain mn
in
humidity
%
barometer
mb
20260506013022 62 119 0.0 0.0 0.00 0.00 0.00 61 1013.6
20260506011508 62 119 0.0 0.0 0.00 0.00 0.00 62 1013.5
20260506010007 62 119 0.0 0.0 0.00 0.00 0.00 61 1013.6
20260506004513 62 119 0.0 0.0 0.00 0.00 0.00 61 1013.6
20260506003006 63 119 3.0 0.0 0.00 0.00 0.00 60 1013.6
20260506001505 62 117 1.0 0.0 0.00 0.00 0.00 61 1013.7
20260506000015 62 117 0.0 0.0 0.00 0.00 0.00 61 1013.7
20260505234510 63 117 0.0 0.0 0.00 0.00 0.00 61 1013.8
20260505233003 63 116 3.0 0.0 0.00 0.00 0.00 60 1013.9
20260505231502 62 105 1.0 0.0 0.00 0.00 0.00 58 1014.0
20260505230118 62 105 0.0 0.0 0.00 0.00 0.00 57 1014.0
20260505224557 62 105 1.0 0.0 0.00 0.00 0.00 57 1014.2
20260505223100 62 105 0.0 0.0 0.00 0.00 0.00 56 1014.2
20260505221559 62 105 0.0 0.0 0.00 0.00 0.00 55 1014.2
20260505220056 62 105 0.0 0.0 0.00 0.00 0.00 55 1014.1
20260505214605 62 105 0.0 0.0 0.00 0.00 0.00 54 1014.1
20260505213058 63 150 0.0 0.0 0.00 0.00 0.00 54 1014.2
20260505211557 63 150 0.0 0.0 0.00 0.00 0.00 54 1014.3
20260505210053 63 150 0.0 0.0 0.00 0.00 0.00 53 1014.3
20260505204549 63 150 0.0 0.0 0.00 0.00 0.00 52 1014.2
20260505203050 64 150 0.0 0.0 0.00 0.00 0.00 52 1014.4
20260505201553 64 150 0.0 0.0 0.00 0.00 0.00 51 1014.3
20260505200047 65 150 0.0 0.0 0.00 0.00 0.00 52 1014.3
20260505194546 65 150 0.0 0.0 0.00 0.00 0.00 51 1014.3
20260505193050 65 150 0.0 0.0 0.00 0.00 0.00 51 1014.3
20260505191552 66 150 0.0 0.0 0.00 0.00 0.00 51 1014.3
20260505184559 66 150 0.0 0.0 0.00 0.00 0.00 49 1014.0
20260505183050 67 150 0.0 0.0 0.00 0.00 0.00 48 1013.9
20260505181544 67 150 1.0 0.0 0.00 0.00 0.00 47 1013.7
20260505180049 68 150 0.0 0.0 0.00 0.00 0.00 45 1013.6
20260505174543 69 150 1.0 0.0 0.00 0.00 0.00 44 1013.5
20260505173044 69 150 1.0 0.0 0.00 0.00 0.00 42 1013.3
20260505171543 70 150 1.0 0.0 0.00 0.00 0.00 41 1013.4
20260505170041 71 150 2.0 0.0 0.00 0.00 0.00 41 1013.4
20260505164541 71 150 4.0 0.0 0.00 0.00 0.00 40 1013.4
20260505163040 72 142 4.0 0.0 0.00 0.00 0.00 36 1013.4
20260505161539 73 138 3.0 0.0 0.00 0.00 0.00 35 1013.4
20260505153038 73 134 4.0 0.0 0.00 0.00 0.00 34 1013.3
20260505151536 73 130 4.0 0.0 0.00 0.00 0.00 33 1013.3
20260505124524 73 192 6.0 0.0 0.00 0.00 0.00 31 1014.2
20260505123036 72 188 6.0 0.0 0.00 0.00 0.00 32 1014.4
20260505121523 72 200 5.0 0.0 0.00 0.00 0.00 32 1014.5
20260505120017 71 140 8.0 0.0 0.00 0.00 0.00 32 1014.6
20260505114515 71 190 6.0 0.0 0.00 0.00 0.00 35 1014.6
20260505113017 71 134 6.0 0.0 0.00 0.00 0.00 37 1014.7
20260505111517 71 182 6.0 0.0 0.00 0.00 0.00 40 1014.8
20260505101508 70 188 6.0 0.0 0.00 0.00 0.00 42 1015.1
20260505100005 69 222 8.0 0.0 0.00 0.00 0.00 40 1015.1
20260505094503 69 165 5.0 0.0 0.00 0.00 0.00 45 1015.1
20260505093004 69 138 5.0 0.0 0.00 0.00 0.00 49 1015.2
20260505091503 69 156 5.0 0.0 0.00 0.00 0.00 51 1015.4
20260505090111 69 105 4.0 0.0 0.00 0.00 0.00 48 1015.2
20260505084600 68 170 3.0 0.0 0.00 0.00 0.00 53 1015.4
20260505083108 68 132 4.0 0.0 0.00 0.00 0.00 47 1015.5
20260505081554 67 137 3.0 0.0 0.00 0.00 0.00 44 1015.6
20260505080055 67 134 3.0 0.0 0.00 0.00 0.00 41 1015.6
20260505074550 66 261 3.0 0.0 0.00 0.00 0.00 40 1015.7
20260505073057 66 90 2.0 0.0 0.00 0.00 0.00 43 1015.7
20260505071547 65 100 0.0 0.0 0.00 0.00 0.00 41 1015.6
20260505070052 64 100 1.0 0.0 0.00 0.00 0.00 43 1015.6
20260505064541 63 99 1.0 0.0 0.00 0.00 0.00 46 1015.5
20260505063042 63 100 0.0 0.0 0.00 0.00 0.00 47 1015.5
20260505061538 62 100 0.0 0.0 0.00 0.00 0.00 49 1015.4
20260505060036 62 99 1.0 0.0 0.00 0.00 0.00 52 1015.3
20260505054533 60 100 2.0 0.0 0.00 0.00 0.00 55 1015.5
20260505053029 60 100 1.0 0.0 0.00 0.00 0.00 58 1015.4
20260505051528 59 100 0.0 0.0 0.00 0.00 0.00 60 1015.3
20260505041538 55 100 0.0 0.0 0.00 0.00 0.00 61 1015.2
20260505040021 54 99 0.0 0.0 0.00 0.00 0.00 64 1015.1
20260505034519 54 99 0.0 0.0 0.00 0.00 0.00 66 1015.0
20260505033019 55 99 0.0 0.0 0.00 0.00 0.00 69 1015.0
20260505031519 55 99 1.0 0.0 0.00 0.00 0.00 71 1015.0
20260505030017 55 99 0.0 0.0 0.00 0.00 0.00 71 1015.0
20260505024518 56 99 0.0 0.0 0.00 0.00 0.00 71 1015.0
20260505023016 56 99 0.0 0.0 0.00 0.00 0.00 70 1015.1
20260505021513 57 99 0.0 0.0 0.00 0.00 0.00 69 1015.1
20260505020017 57 99 0.0 0.0 0.00 0.00 0.00 69 1015.2
20260505014512 57 99 0.0 0.0 0.00 0.00 0.00 68 1015.3